STARLINK-35503 (66245 NORAD) Tracking and Keplerian Element Data

This shows tracking and keplerian element data for the satellite.

Feedback or suggestion? Click here.




ElementValue
Catalog66245
NameSTARLINK-35503
Epoch Orbit902
Epoch Day354.22389466
Epoch Year2025
RAAN294.1645
Inclination53.1624
Eccentricity8.07E-05
Argument of Perigee87.4817
Mean Anonmoly272.6281
Mean Motion15.39645509
Decay Rate0.00035068
L11 66245U 25245M 25354.22389466 .00035068 00000+0 88190-3 0 9990
L22 66245 53.1624 294.1645 0000807 87.4817 272.6281 15.39645509 9023



Live tracking and technical data element details for STARLINK-35503 (NORAD 66245). STARLINK-35503 can be tracked NOW for your location showing map with azimuth and elevation plus other details from your city location.







IsCatalogInMostPopularTable: catalog: 66245, numindb: 5
Update: records affected: 1



GetName: 66245 STARLINK-35503

Hit Count: updated at: Sun, 08 Feb 2026 16:28:34 GMT